Location: Unspecified
(51.5147°N, 7.4673°E)
Time: 22:06:16
(UTC+01:00)

Vanguard 1 Rocket - Pass Details

Date: 19 February 2026
Orbit: 653 x 4214 km, 34.3° (Epoch: 8 March)

Event Time Altitude Azimuth Distance (km) Brightness Sun altitude
Rises 16:29:39 0° 255° (WSW) 5,114 12.8 10.8°
Reaches altitude 10° 16:32:41 10° 248° (WSW) 4,504 13.3 10.4°
Maximum altitude 16:44:55 41° 184° (S) 3,898 11.1 8.8°
Drops below altitude 10° 17:05:06 10° 125° (SE) 7,221 11.7 6.0°
Sets 17:11:46 0° 120° (ESE) 8,423 12.0 5.1°
